TimeCDT,TemperatureF,Dew PointF,Humidity,Sea Level PressureIn,VisibilityMPH,Wind Direction,Wind SpeedMPH,Gust SpeedMPH,PrecipitationIn,Events,Conditions,WindDirDegrees,DateUTC
12:53 AM,63.0,53.1,70,29.96,10.0,Calm,Calm,-,N/A,,Clear,0,2013-04-14 05:53:00
1:53 AM,61.0,53.1,75,29.94,10.0,Calm,Calm,-,N/A,,Clear,0,2013-04-14 06:53:00
2:53 AM,61.0,54.0,78,29.93,10.0,Calm,Calm,-,N/A,,Mostly Cloudy,0,2013-04-14 07:53:00
3:53 AM,61.0,55.0,81,29.90,10.0,ENE,4.6,-,N/A,,Mostly Cloudy,70,2013-04-14 08:53:00
4:49 AM,62.6,53.6,72,29.89,10.0,East,9.2,-,0.00,Rain-Thunderstorm,Light Rain,100,2013-04-14 09:49:00
4:53 AM,63.0,52.0,67,29.88,10.0,East,11.5,16.1,0.00,Rain-Thunderstorm,Light Rain,80,2013-04-14 09:53:00
5:36 AM,62.6,50.0,63,29.91,10.0,East,3.5,-,0.00,Rain,Light Rain,100,2013-04-14 10:36:00
5:53 AM,63.0,51.1,65,29.91,10.0,East,3.5,-,0.00,,Mostly Cloudy,90,2013-04-14 10:53:00
7:02 AM,60.8,53.6,77,29.94,10.0,Calm,Calm,-,0.00,,Scattered Clouds,0,2013-04-14 12:02:00
7:53 AM,63.0,54.0,72,29.95,10.0,East,8.1,-,0.00,,Overcast,80,2013-04-14 12:53:00
8:53 AM,63.0,55.0,75,29.96,10.0,East,8.1,-,0.00,Rain,Light Rain,90,2013-04-14 13:53:00
9:53 AM,66.0,55.0,68,29.94,10.0,East,12.7,18.4,0.01,,Overcast,100,2013-04-14 14:53:00
10:53 AM,66.0,54.0,65,29.94,10.0,East,9.2,-,0.00,,Overcast,100,2013-04-14 15:53:00
11:53 AM,66.0,55.0,68,29.93,10.0,East,8.1,-,0.00,,Overcast,100,2013-04-14 16:53:00
12:53 PM,64.0,54.0,70,29.89,10.0,East,9.2,-,0.00,,Overcast,90,2013-04-14 17:53:00
1:53 PM,64.0,53.1,67,29.89,10.0,East,6.9,-,0.00,Thunderstorm,Mostly Cloudy,90,2013-04-14 18:53:00
2:12 PM,62.6,55.4,77,29.91,10.0,North,6.9,-,0.02,Rain-Thunderstorm,Light Thunderstorms and Rain,360,2013-04-14 19:12:00
2:22 PM,60.8,57.2,88,29.93,2.5,NW,9.2,-,0.09,Rain-Thunderstorm,Heavy Thunderstorms and Rain,320,2013-04-14 19:22:00
2:31 PM,60.8,57.2,88,29.96,1.8,WNW,13.8,-,0.16,Rain-Thunderstorm,Heavy Thunderstorms and Rain,290,2013-04-14 19:31:00
2:50 PM,60.8,57.2,88,30.00,2.0,WNW,19.6,29.9,0.43,Rain-Thunderstorm,Heavy Rain,300,2013-04-14 19:50:00
3:01 PM,59.0,57.2,94,29.99,1.5,NW,20.7,32.2,0.08,Rain-Thunderstorm,Heavy Rain,310,2013-04-14 20:01:00
3:04 PM,59.0,57.2,94,29.98,1.5,NW,13.8,28.8,0.13,Rain,Heavy Rain,320,2013-04-14 20:04:00
3:18 PM,59.0,57.2,94,29.93,1.5,East,10.4,-,0.35,Rain-Thunderstorm,Heavy Rain,100,2013-04-14 20:18:00
3:29 PM,59.0,57.2,94,29.96,3.0,ENE,3.5,-,0.42,Rain-Thunderstorm,Rain,70,2013-04-14 20:29:00
3:53 PM,59.0,57.0,93,29.95,7.0,ENE,6.9,-,0.49,Rain,Rain,60,2013-04-14 20:53:00
4:07 PM,59.0,57.2,94,29.94,7.0,ENE,5.8,-,0.04,Rain-Thunderstorm,Rain,70,2013-04-14 21:07:00
4:35 PM,59.0,57.2,94,29.91,8.0,East,11.5,-,0.10,Rain,Rain,90,2013-04-14 21:35:00
4:53 PM,59.0,57.0,93,29.89,8.0,ESE,10.4,19.6,0.13,Rain,Light Rain,110,2013-04-14 21:53:00
5:53 PM,60.1,57.0,90,29.87,10.0,South,11.5,17.3,0.02,,Scattered Clouds,170,2013-04-14 22:53:00
6:53 PM,60.1,57.0,90,29.76,10.0,SSE,12.7,25.3,0.00,,Scattered Clouds,160,2013-04-14 23:53:00
7:53 PM,61.0,57.9,90,29.86,10.0,WNW,5.8,-,N/A,,Clear,290,2013-04-15 00:53:00
8:53 PM,60.1,57.9,93,29.90,10.0,Calm,Calm,-,N/A,,Clear,0,2013-04-15 01:53:00
9:53 PM,60.1,57.9,93,29.90,10.0,East,4.6,-,N/A,,Clear,80,2013-04-15 02:53:00
10:53 PM,59.0,57.0,93,29.91,10.0,ENE,3.5,-,N/A,,Clear,60,2013-04-15 03:53:00
11:53 PM,57.9,57.0,97,29.88,10.0,ENE,3.5,-,N/A,,Clear,70,2013-04-15 04:53:00